STARLINK-33716, 63486

Orbit data source: Space-Track

STARLINK-33716, 63486 is a payload satellite owned by SpaceX/Seattle (US) in LEO that was launched on Sun, 06 Apr 2025 UTC via an FALCON 9 launch vehicle from the Air Force Eastern Test Range (AFETR). Payload-class satellites include a variety of spacecraft equipped with specific instruments for various scientific and technological missions. These include communications satellites like Starlink; space stations such as the ISS; scientific satellites like the Hubble; Earth observation satellites from companies like Planet Labs, Umbra, and HawkEye 360; GPS; miniature CubeSats for education and research; and military/defense satellites.

Loading next visibility...
Identifier
63486, 2025-070AC
Orbit
LEO
Country
Flag of USUS
Related business
Manufacturer
SpaceX/Seattle
Mission
Operational Commercial Communications
Bus & Motor
STARLINK V2MO, Unknown motor
Mass
575 kg wet, ~530 kg dry
Launch date (UTC)
2025-04-06 (1 year ago)
Launch vehicle
FALCON 9
Launch site
Air Force Eastern Test Range (AFETR)
Object type
Payload
Rocket body
Debris
Shape & HBR
Box + 2 Pan, 17.7 m
Radar Cross Section
36.964 m², Large (>1 m²)

Expand to show TLE details & history
Last TLE update: 8 hours ago

TLE from 8 hours ago
0 STARLINK-33716
1 63486U 25070AC  26169.94154509  .00011957  00000-0  44301-3 0  9990
2 63486  42.9985  47.7963 0004477 276.7717  83.2626 15.27597058 68461
Epoch: 2026-06-18T22:35Z
TLE epoch observation values (Epoch: 2026-06-18T22:35:49.495Z)
Latitude
0.00003°
Longitude
161.66245°
Altitude
482.414 km
Speed
7.626 km/s
True Right ascension
03h 11m 11s
True Declination
0° 00' 00"
Sunlit
Object was in daylight at epoch
Visualization orbit readout
Latitude
Unknown
Longitude
Unknown
Altitude
Unknown
Speed
Unknown
Apparent Right ascension
Unknown
Apparent Declination
Unknown
Sunlit
N/A
Visualization observer readout
Local Sidereal Time
17:13:46
Azimuth
Unknown
Elevation
Unknown
Doppler factor
Unknown
Orbital elements
Apogee altitude
488.016 km
Perigee altitude
481.871 km
Semi-major axis
6,863.08 km
Eccentricity
0.00045
Inclination
42.9985°
RAAN
47.7963°
Arg. of periapsis
276.7717°
True anomaly
83.31355°
Mean anomaly
83.2626°
Eccentric anomaly
83.28808°
Mean motion
3.81737 °/min
Orbital period
94.31 mins
BSTAR
0.00044301
Loading maneuver chart data...
Computing Atmospheric mass density...
Loading historical data...
Loading historical data...
Loading historical data...
Loading historical data...
Loading historical data...
Loading historical data...
Loading historical data...

Documentation

Showing up to 5 results
|